Weather History for Tappahannock, VA

Change the Weather History Date:

Monday, September 9, 2013

  Actual Average (KRIC) Record (KRIC)
Temperature  
Mean Temperature 73 °F 73 °F  
Max Temperature 79 °F 84 °F 98 °F (1900)
Min Temperature 67 °F 63 °F 47 °F (1986)
Degree Days  
Heating Degree Days 0 0  
Month to date heating degree days 0  
Since 1 July heating degree days 1  
Cooling Degree Days 8 8  
Month to date cooling degree days 84  
Year to date cooling degree days 1391  
Growing Degree Days 23 (Base 50)    
Moisture  
Dew Point 63 °F    
Average Humidity 71    
Maximum Humidity 99    
Minimum Humidity 60    
Precipitation  
Precipitation 0.00 in 0.14 in 3.42 in (1927)
Month to date precipitation 1.27  
Year to date precipitation 31.26  
Snow  
Snow 0.00 in 0.00 in 0.00 in (2002)
Month to date snowfall 0.0  
Since 1 July snowfall 0.0  
Snow Depth -    
Sea Level Pressure  
Sea Level Pressure 30.14 in    
Wind  
Wind Speed 4 mph (NE)    
Max Wind Speed 7 mph    
Max Gust Speed -    
Visibility 10 miles    
Events      
T = Trace of Precipitation, MM = Missing Value Source: NWS Daily Summary

Daily Weather History Graph

Daily Weather History Graph

Search for Another Location

Airport:

Trip Planner

Search our weather history database for the weather conditions in past years. The results will help you decide how hot, cold, wet, or windy it might be!

Date:

Astronomy

Sep. 09, 2013 Rise Set
Actual Time 6:44 AM EDT 7:24 PM EDT
Civil Twilight 6:18 AM EDT 7:50 PM EDT
Nautical Twilight 5:46 AM EDT 8:22 PM EDT
Astronomical Twilight 5:14 AM EDT 8:54 PM EDT
Moon 10:58 AM EDT (9/9) 9:45 PM EDT (9/9)
Length of Visible Light 13h 32m
Length of Day
12h 39m
Waxing Crescent, 19% of the Moon is Illuminated
Sep 9
Waxing Crescent
Sep 12
First Quarter
Sep 19
Full
Sep 26
Last Quarter
Oct 4
New

Hourly Weather History & Observations

Time (EDT) Temp. Dew Point Humidity Pressure Visibility Wind Dir Wind Speed Gust Speed Precip Events Conditions
12:15 AM 75.2 °F 65.8 °F 73% 30.03 in 10.0 mi Calm Calm - N/A   Scattered Clouds
12:35 AM 74.5 °F 65.8 °F 74% 30.03 in 10.0 mi NNE 4.6 mph - N/A   Mostly Cloudy
12:55 AM 75.2 °F 65.3 °F 71% 30.03 in 10.0 mi NNE 4.6 mph - N/A   Scattered Clouds
1:15 AM 75.2 °F 65.3 °F 71% 30.04 in 10.0 mi NE 4.6 mph - N/A   Scattered Clouds
1:35 AM 75.2 °F 65.3 °F 71% 30.04 in 10.0 mi NE 4.6 mph - N/A   Clear
1:55 AM 73.9 °F 65.3 °F 74% 30.05 in 10.0 mi North 4.6 mph - N/A   Clear
2:15 AM 72.9 °F 64.6 °F 75% 30.05 in 10.0 mi NNE 5.8 mph - N/A   Clear
2:35 AM 72.9 °F 62.8 °F 71% 30.05 in 10.0 mi NNE 5.8 mph - N/A   Clear
2:55 AM 72.1 °F 62.1 °F 70% 30.06 in 10.0 mi NNE 4.6 mph - N/A   Scattered Clouds
3:15 AM 72.1 °F 60.6 °F 67% 30.07 in 10.0 mi NNE 4.6 mph - N/A   Mostly Cloudy
3:35 AM 71.1 °F 59.7 °F 67% 30.06 in 10.0 mi NNE 6.9 mph - N/A   Scattered Clouds
3:55 AM 70.5 °F 58.1 °F 65% 30.07 in 10.0 mi NNE 4.6 mph - N/A   Clear
4:15 AM 70.5 °F 56.5 °F 61% 30.08 in 10.0 mi NE 4.6 mph - N/A   Mostly Cloudy
4:35 AM 70.2 °F 55.9 °F 61% 30.08 in 10.0 mi NNE 5.8 mph - N/A   Mostly Cloudy
4:55 AM 69.4 °F 55.4 °F 61% 30.08 in 10.0 mi NNE 5.8 mph - N/A   Scattered Clouds
5:15 AM 68.9 °F 54.5 °F 60% 30.09 in 10.0 mi NNE 5.8 mph - N/A   Scattered Clouds
5:35 AM 68.9 °F 54.5 °F 60% 30.11 in 10.0 mi NNE 4.6 mph - N/A   Scattered Clouds
5:55 AM 68.7 °F 54.3 °F 60% 30.11 in 10.0 mi NNE 6.9 mph - N/A   Mostly Cloudy
6:15 AM 68.2 °F 54.5 °F 62% 30.11 in 10.0 mi NNE 5.8 mph - N/A   Overcast
6:35 AM 68.0 °F 54.7 °F 62% 30.13 in 10.0 mi North 3.5 mph - N/A   Mostly Cloudy
6:55 AM 67.6 °F 55.0 °F 64% 30.14 in 10.0 mi NNE 3.5 mph - N/A   Overcast
7:15 AM 67.1 °F 55.0 °F 65% 30.15 in 10.0 mi North 3.5 mph - N/A   Scattered Clouds
7:35 AM 67.3 °F 55.6 °F 66% 30.16 in 10.0 mi North 3.5 mph - N/A   Clear
7:55 AM 67.6 °F 55.9 °F 66% 30.16 in 10.0 mi NNE 3.5 mph - N/A   Clear
8:15 AM 68.0 °F 55.9 °F 65% 30.16 in 10.0 mi North 4.6 mph - N/A   Scattered Clouds
8:35 AM 69.3 °F 57.0 °F 65% 30.16 in 10.0 mi North 6.9 mph - N/A   Scattered Clouds
8:55 AM 69.3 °F 56.7 °F 64% 30.17 in 10.0 mi NNE 3.5 mph - N/A   Scattered Clouds
9:15 AM 70.2 °F 57.7 °F 65% 30.18 in 10.0 mi North 5.8 mph - N/A   Mostly Cloudy
9:35 AM 70.7 °F 58.1 °F 64% 30.18 in 10.0 mi NNE 5.8 mph - N/A   Scattered Clouds
9:55 AM 72.0 °F 58.8 °F 63% 30.18 in 10.0 mi ENE 4.6 mph - N/A   Clear
10:15 AM 73.2 °F 59.5 °F 62% 30.18 in 10.0 mi NNE 3.5 mph - N/A   Clear
10:35 AM 73.8 °F 59.7 °F 61% 30.19 in 10.0 mi North 5.8 mph - N/A   Scattered Clouds
10:55 AM 73.6 °F 60.8 °F 64% 30.19 in 10.0 mi NNE 4.6 mph - N/A   Mostly Cloudy
11:15 AM 74.3 °F 60.8 °F 63% 30.18 in 10.0 mi ENE 5.8 mph - N/A   Overcast
11:35 AM 75.6 °F 61.7 °F 62% 30.18 in 10.0 mi East 6.9 mph - N/A   Mostly Cloudy
11:55 AM 77.2 °F 62.8 °F 61% 30.18 in 10.0 mi ESE 3.5 mph - N/A   Mostly Cloudy
12:15 PM 77.5 °F 63.1 °F 61% 30.18 in 10.0 mi North 3.5 mph - N/A   Mostly Cloudy
12:35 PM 77.5 °F 64.0 °F 63% 30.18 in 10.0 mi NE 3.5 mph - N/A   Scattered Clouds
12:55 PM 77.0 °F 64.2 °F 65% 30.18 in 10.0 mi NNE 4.6 mph - N/A   Mostly Cloudy
1:15 PM 77.0 °F 63.7 °F 63% 30.18 in 10.0 mi North 3.5 mph - N/A   Mostly Cloudy
1:35 PM 78.3 °F 64.0 °F 61% 30.17 in 10.0 mi NE 3.5 mph - N/A   Scattered Clouds
1:55 PM 78.6 °F 64.8 °F 62% 30.17 in 10.0 mi Calm Calm - N/A   Mostly Cloudy
2:15 PM 79.5 °F 64.6 °F 60% 30.17 in 10.0 mi ESE 3.5 mph - N/A   Overcast
2:35 PM 79.0 °F 63.9 °F 60% 30.17 in 10.0 mi East 3.5 mph - N/A   Mostly Cloudy
2:55 PM 79.5 °F 64.6 °F 60% 30.16 in 10.0 mi East 3.5 mph - N/A   Overcast
3:15 PM 79.9 °F 65.3 °F 61% 30.16 in 10.0 mi SE 4.6 mph - N/A   Mostly Cloudy
3:35 PM 79.0 °F 65.8 °F 64% 30.16 in 10.0 mi ESE 4.6 mph - N/A   Mostly Cloudy
3:55 PM 78.8 °F 66.7 °F 66% 30.15 in 10.0 mi ESE 3.5 mph - N/A   Overcast
4:15 PM 78.6 °F 66.4 °F 66% 30.15 in 10.0 mi East 3.5 mph - N/A   Mostly Cloudy
4:35 PM 78.1 °F 66.9 °F 68% 30.15 in 10.0 mi ESE 3.5 mph - N/A   Mostly Cloudy
4:55 PM 77.2 °F 67.1 °F 71% 30.15 in 10.0 mi ESE 3.5 mph - N/A   Overcast
5:15 PM 79.3 °F 67.6 °F 67% 30.15 in 10.0 mi SE 5.8 mph - N/A   Mostly Cloudy
5:35 PM 78.3 °F 66.6 °F 67% 30.15 in 10.0 mi SE 4.6 mph - N/A   Scattered Clouds
5:55 PM 77.9 °F 66.9 °F 69% 30.15 in 10.0 mi Calm Calm - N/A   Scattered Clouds
6:15 PM 77.2 °F 67.5 °F 72% 30.15 in 10.0 mi Calm Calm - N/A   Mostly Cloudy
6:35 PM 76.3 °F 67.5 °F 74% 30.15 in 10.0 mi Calm Calm - N/A   Overcast
6:55 PM 75.4 °F 67.5 °F 76% 30.14 in 10.0 mi Calm Calm - N/A   Overcast
7:15 PM 74.5 °F 67.1 °F 78% 30.15 in 10.0 mi Calm Calm - N/A   Scattered Clouds
7:35 PM 72.7 °F 68.0 °F 85% 30.14 in 10.0 mi ESE 3.5 mph - N/A   Clear
7:55 PM 72.7 °F 67.6 °F 84% 30.15 in 10.0 mi Calm Calm - N/A   Clear
8:15 PM 72.7 °F 67.6 °F 84% 30.15 in 10.0 mi Calm Calm - N/A   Clear
8:35 PM 72.5 °F 67.6 °F 85% 30.16 in 10.0 mi Calm Calm - N/A   Clear
8:55 PM 71.6 °F 68.2 °F 89% 30.16 in 10.0 mi Calm Calm - N/A   Clear
9:15 PM 71.2 °F 68.2 °F 90% 30.16 in 10.0 mi Calm Calm - N/A   Clear
9:35 PM 69.8 °F 68.5 °F 96% 30.16 in 10.0 mi Calm Calm - N/A   Clear
9:55 PM 69.4 °F 68.2 °F 96% 30.16 in 10.0 mi Calm Calm - N/A   Clear
10:15 PM 70.2 °F 68.9 °F 96% 30.16 in 10.0 mi Calm Calm - N/A   Clear
10:35 PM 70.7 °F 69.3 °F 95% 30.16 in 10.0 mi SE 3.5 mph - N/A   Clear
10:55 PM 70.7 °F 69.4 °F 96% 30.17 in 7.0 mi ESE 3.5 mph - N/A   Clear
11:15 PM 70.5 °F 69.6 °F 97% 30.18 in 7.0 mi Calm Calm - N/A   Clear
11:35 PM 69.8 °F 69.1 °F 98% 30.18 in 7.0 mi Calm Calm - N/A   Clear
11:55 PM 69.3 °F 68.9 °F 99% 30.18 in 5.0 mi Calm Calm - N/A   Clear